Вернуться в каталог

TANSAT

АктивенНаукаSSO
NORAD 41898·PAYLOAD·🇨🇳 China

Запущен Dec 21, 2016 с Jiuquan Satellite Launch Center

Loading…

Ближайшие Пролёты (ближайшие 24 часа)

TLE

СвежийSource: Space-Track

Эпоха: Sep 14, 2026, 14:48 UTC

1 41898U 16081A   26257.61733308 -.00000017  00000-0  70257-5 0  9994
2 41898  98.5414 260.5440 0021369  35.5486 324.7132 14.60002712517677

Отслеживайте TANSAT в реальном времени с AllMySat

Download on the App Store